Mackinac Island, MI

4:17 AM EDT on July 25, 2017 (GMT -0400)
Mackinac Island

Weather History for KMCD - August, 2014

Change the Weather History Date:

Saturday, August 9, 2014

  Actual Average Record
Temperature  
Mean Temperature 69 °F -  
Max Temperature 79 °F 71 °F 83 °F (1984)
Min Temperature 59 °F 57 °F 50 °F (1982)
Cooling Degree Days 4    
Growing Degree Days 19 (Base 50)    
Moisture  
Dew Point 57 °F    
Average Humidity 69    
Maximum Humidity 98    
Minimum Humidity 37    
Precipitation  
Precipitation 0.00 in - - ()
Sea Level Pressure  
Sea Level Pressure 30.16 in    
Wind  
Wind Speed 3 mph (South)    
Max Wind Speed 7 mph    
Max Gust Speed -    
Visibility 10 miles    
Events      
Averages and records for this station are not official NWS values.
T = Trace of Precipitation, MM = Missing Value Source: NWS Daily Summary

Daily Weather History Graph

Daily Weather History Graph

Search for Another Location

Airport or City:

Trip Planner

Search our weather history database for the weather conditions in past years. The results will help you decide how hot, cold, wet, or windy it might be!

Date:

Astronomy

Aug. 09, 2014 Rise Set
Actual Time 6:31 AM EDT 8:56 PM EDT
Civil Twilight 5:57 AM EDT 9:29 PM EDT
Nautical Twilight 5:15 AM EDT 10:10 PM EDT
Astronomical Twilight 4:28 AM EDT 10:57 PM EDT
Moon 7:55 PM EDT (8/9) 5:10 AM EDT (8/9)
Length of Visible Light 15h 31m
Length of Day
14h 25m
Waxing Gibbous, 98% of the Moon is Illuminated
Aug 9
Waxing Gibbous
Aug 10
Full
Aug 17
Last Quarter
Aug 25
New
Sep 2
First Quarter

Hourly Weather History & Observations

Time (EDT) Temp. Dew Point Humidity Pressure Visibility Wind Dir Wind Speed Gust Speed Precip Events Conditions
12:18 AM 62.6 °F 55.4 °F 77% 30.15 in 10.0 mi SSW 4.6 mph - N/A   Clear
12:38 AM 62.6 °F 55.2 °F 77% 30.15 in 10.0 mi South 4.6 mph - N/A   Clear
12:58 AM 62.4 °F 55.2 °F 77% 30.15 in 10.0 mi SSW 4.6 mph - N/A   Clear
1:38 AM 61.5 °F 55.6 °F 81% 30.15 in 10.0 mi Calm Calm - N/A   Clear
1:58 AM 61.2 °F 56.3 °F 84% 30.15 in 10.0 mi Calm Calm - N/A   Clear
2:18 AM 61.0 °F 56.8 °F 86% 30.15 in 10.0 mi SSW 3.5 mph - N/A   Clear
2:38 AM 61.0 °F 56.8 °F 86% 30.15 in 10.0 mi South 4.6 mph - N/A   Clear
2:58 AM 61.0 °F 56.8 °F 86% 30.15 in 10.0 mi South 4.6 mph - N/A   Clear
3:18 AM 61.0 °F 57.2 °F 87% 30.15 in 10.0 mi South 4.6 mph - N/A   Clear
3:38 AM 59.0 °F 57.2 °F 94% 30.15 in 10.0 mi Calm Calm - N/A   Clear
3:58 AM 59.4 °F 57.2 °F 93% 30.15 in 10.0 mi South 4.6 mph - N/A   Clear
4:18 AM 59.9 °F 58.1 °F 94% 30.15 in 10.0 mi SSW 4.6 mph - N/A   Clear
4:38 AM 60.3 °F 58.6 °F 94% 30.15 in 10.0 mi SSW 4.6 mph - N/A   Clear
4:58 AM 61.7 °F 59.9 °F 94% 30.15 in 10.0 mi South 6.9 mph - N/A   Clear
5:18 AM 61.7 °F 60.3 °F 95% 30.15 in 10.0 mi SSW 5.8 mph - N/A   Clear
5:38 AM 61.2 °F 59.7 °F 95% 30.15 in 10.0 mi SSW 5.8 mph - N/A   Clear
5:58 AM 60.6 °F 59.4 °F 96% 30.15 in 10.0 mi SSW 5.8 mph - N/A   Clear
6:18 AM 59.9 °F 59.0 °F 97% 30.15 in 10.0 mi SW 5.8 mph - N/A   Clear
6:39 AM 59.4 °F 58.5 °F 97% 30.15 in 10.0 mi SW 5.8 mph - N/A   Clear
6:58 AM 59.0 °F 58.5 °F 98% 30.16 in 10.0 mi West 5.8 mph - N/A   Clear
7:18 AM 59.0 °F 58.3 °F 97% 30.17 in 10.0 mi West 3.5 mph - N/A   Clear
7:38 AM 59.5 °F 59.0 °F 98% 30.18 in 10.0 mi Calm Calm - N/A   Clear
7:58 AM 60.8 °F 60.1 °F 97% 30.19 in 10.0 mi NE 3.5 mph - N/A   Clear
8:18 AM 63.9 °F 63.1 °F 97% 30.19 in 7.0 mi Calm Calm - N/A   Clear
8:38 AM 65.3 °F 63.0 °F 92% 30.20 in 10.0 mi Calm Calm - N/A   Clear
8:58 AM 67.3 °F 62.4 °F 84% 30.19 in 10.0 mi Calm Calm - N/A   Clear
9:19 AM 68.5 °F 62.4 °F 81% 30.19 in 10.0 mi NW 3.5 mph - N/A   Clear
9:38 AM 68.2 °F 61.5 °F 79% 30.20 in 10.0 mi Calm Calm - N/A   Clear
9:58 AM 68.5 °F 61.7 °F 79% 30.20 in 10.0 mi Calm Calm - N/A   Clear
10:18 AM 69.3 °F 61.2 °F 75% 30.20 in 10.0 mi NW 3.5 mph - N/A   Clear
10:38 AM 70.7 °F 61.7 °F 73% 30.20 in 10.0 mi NNW 3.5 mph - N/A   Clear
10:58 AM 73.0 °F 61.0 °F 66% 30.20 in 10.0 mi North 3.5 mph - N/A   Clear
11:18 AM 74.5 °F 60.8 °F 62% 30.20 in 10.0 mi Calm Calm - N/A   Clear
11:38 AM 74.7 °F 60.1 °F 60% 30.20 in 10.0 mi Calm Calm - N/A   Clear
11:58 AM 76.5 °F 59.2 °F 55% 30.20 in 10.0 mi NNE 3.5 mph - N/A   Clear
12:18 PM 76.6 °F 56.8 °F 50% 30.20 in 10.0 mi NNE 3.5 mph - N/A   Clear
12:38 PM 77.2 °F 55.4 °F 47% 30.20 in 10.0 mi NNE 3.5 mph - N/A   Clear
12:58 PM 77.9 °F 54.9 °F 45% 30.19 in 10.0 mi Calm Calm - N/A   Clear
1:18 PM 78.4 °F 53.4 °F 42% 30.19 in 10.0 mi Calm Calm - N/A   Clear
1:38 PM 79.0 °F 53.2 °F 41% 30.18 in 10.0 mi ENE 3.5 mph - N/A   Clear
1:58 PM 78.6 °F 54.3 °F 43% 30.17 in 10.0 mi Calm Calm - N/A   Clear
2:18 PM 79.5 °F 53.8 °F 41% 30.17 in 10.0 mi Calm Calm - N/A   Clear
2:39 PM 79.5 °F 51.4 °F 37% 30.16 in 10.0 mi Calm Calm - N/A   Clear
2:58 PM 79.0 °F 53.4 °F 41% 30.16 in 10.0 mi Calm Calm - N/A   Clear
3:18 PM 78.8 °F 54.5 °F 43% 30.16 in 10.0 mi SSE 5.8 mph - N/A   Clear
3:39 PM 79.7 °F 52.5 °F 39% 30.16 in 10.0 mi SE 6.9 mph - N/A   Clear
3:58 PM 79.0 °F 53.6 °F 41% 30.15 in 10.0 mi SSE 5.8 mph - N/A   Clear
4:18 PM 78.8 °F 54.5 °F 43% 30.15 in 10.0 mi South 6.9 mph - N/A   Clear
4:39 PM 78.6 °F 55.2 °F 44% 30.15 in 10.0 mi South 3.5 mph - N/A   Clear
4:58 PM 78.1 °F 52.2 °F 40% 30.15 in 10.0 mi SSE 5.8 mph - N/A   Clear
5:18 PM 78.8 °F 52.5 °F 40% 30.14 in 10.0 mi SSE 4.6 mph - N/A   Clear
5:39 PM 78.4 °F 53.6 °F 42% 30.14 in 10.0 mi South 5.8 mph - N/A   Clear
5:58 PM 78.8 °F 55.2 °F 44% 30.14 in 10.0 mi SSE 4.6 mph - N/A   Clear
6:19 PM 78.6 °F 54.7 °F 43% 30.13 in 10.0 mi Calm Calm - N/A   Clear
6:38 PM 78.8 °F 54.9 °F 44% 30.13 in 10.0 mi SSE 3.5 mph - N/A   Clear
6:58 PM 77.9 °F 54.7 °F 45% 30.13 in 10.0 mi Calm Calm - N/A   Clear
7:19 PM 77.2 °F 54.5 °F 45% 30.13 in 10.0 mi Calm Calm - N/A   Clear
7:38 PM 77.2 °F 55.6 °F 47% 30.13 in 10.0 mi Calm Calm - N/A   Clear
7:58 PM 75.2 °F 58.3 °F 56% 30.13 in 10.0 mi Calm Calm - N/A   Clear
8:19 PM 72.3 °F 58.5 °F 62% 30.13 in 10.0 mi Calm Calm - N/A   Clear
8:38 PM 70.9 °F 59.2 °F 66% 30.13 in 10.0 mi Calm Calm - N/A   Clear
8:58 PM 68.4 °F 58.5 °F 71% 30.14 in 10.0 mi Calm Calm - N/A   Clear
9:18 PM 67.1 °F 57.4 °F 71% 30.13 in 10.0 mi Calm Calm - N/A   Clear
9:38 PM 66.4 °F 57.2 °F 72% 30.14 in 10.0 mi Calm Calm - N/A   Clear
9:59 PM 65.3 °F 56.3 °F 73% 30.14 in 10.0 mi NNW 4.6 mph - N/A   Clear
10:18 PM 65.3 °F 55.4 °F 70% 30.15 in 10.0 mi North 3.5 mph - N/A   Clear
10:39 PM 64.4 °F 55.6 °F 73% 30.14 in 10.0 mi North 4.6 mph - N/A   Clear
10:58 PM 64.4 °F 56.3 °F 75% 30.14 in 10.0 mi NNE 4.6 mph - N/A   Clear
11:18 PM 63.9 °F 57.2 °F 79% 30.14 in 10.0 mi NE 5.8 mph - N/A   Clear